Wrangell, AK

7:50 AM AKDT on October 17, 2017 (GMT -0800)
Wrangell

Weather History for PAWG - November, 2012

Change the Weather History Date:

Friday, November 2, 2012

  Actual Average Record
Temperature  
Mean Temperature 40 °F -  
Max Temperature 46 °F 46 °F 66 °F (1949)
Min Temperature 35 °F 36 °F 21 °F (1961)
Degree Days  
Heating Degree Days 24    
Moisture  
Dew Point 33 °F    
Average Humidity 77    
Maximum Humidity 93    
Minimum Humidity 53    
Precipitation  
Precipitation 0.00 in - - ()
Sea Level Pressure  
Sea Level Pressure 29.63 in    
Wind  
Wind Speed 5 mph (WNW)    
Max Wind Speed 17 mph    
Max Gust Speed 25 mph    
Visibility 9 miles    
Events      
Averages and records for this station are not official NWS values.
T = Trace of Precipitation, MM = Missing Value Source: NWS Daily Summary

Daily Weather History Graph

Daily Weather History Graph

Search for Another Location

Airport or City:

Trip Planner

Search our weather history database for the weather conditions in past years. The results will help you decide how hot, cold, wet, or windy it might be!

Date:

Astronomy

Nov. 02, 2012 Rise Set
Actual Time 8:01 AM AKDT 5:03 PM AKDT
Civil Twilight 7:21 AM AKDT 5:43 PM AKDT
Nautical Twilight 6:36 AM AKDT 6:28 PM AKDT
Astronomical Twilight 5:52 AM AKDT 7:12 PM AKDT
Moon 7:31 PM AKDT (11/2) 11:53 AM AKDT (11/2)
Length of Visible Light 10h 22m
Length of Day
9h 01m
Waning Gibbous, 86% of the Moon is Illuminated
Nov 2
Waning Gibbous
Nov 6
Last Quarter
Nov 13
New
Nov 20
First Quarter
Nov 28
Full

Hourly Weather History & Observations

Time (AKDT) Temp. Windchill Dew Point Humidity Pressure Visibility Wind Dir Wind Speed Gust Speed Precip Events Conditions
12:16 AM 37.4 °F - 24.8 °F 60% 29.72 in 10.0 mi Calm Calm - N/A   Overcast
12:36 AM 37.4 °F - 24.8 °F 60% 29.72 in 10.0 mi Calm Calm - N/A   Overcast
12:56 AM 39.2 °F 37.0 °F 24.8 °F 56% 29.71 in 10.0 mi WNW 3.5 mph - N/A   Overcast
1:16 AM 39.2 °F 35.9 °F 24.8 °F 56% 29.70 in 5.0 mi West 4.6 mph - N/A   Overcast
1:36 AM 37.4 °F 34.9 °F 24.8 °F 60% 29.70 in 6.0 mi West 3.5 mph - N/A   Overcast
1:56 AM 42.8 °F 38.0 °F 26.6 °F 53% 29.68 in 10.0 mi South 8.1 mph - N/A   Overcast
2:16 AM 42.8 °F 39.3 °F 28.4 °F 57% 29.69 in 10.0 mi West 5.8 mph - N/A   Overcast
2:36 AM 39.2 °F 35.0 °F 26.6 °F 61% 29.68 in 8.0 mi West 5.8 mph - N/A   Overcast
2:56 AM 42.8 °F 40.1 °F 26.6 °F 53% 29.67 in 10.0 mi SSW 4.6 mph - N/A   Overcast
3:16 AM 41.0 °F - 28.4 °F 61% 29.67 in 10.0 mi Calm Calm - N/A   Overcast
3:36 AM 41.0 °F - 28.4 °F 61% 29.66 in 10.0 mi Calm Calm - N/A   Overcast
3:56 AM 39.2 °F 35.0 °F 26.6 °F 61% 29.66 in 7.0 mi West 5.8 mph - N/A   Overcast
4:16 AM 39.2 °F 35.9 °F 26.6 °F 61% 29.65 in 7.0 mi SW 4.6 mph - N/A   Overcast
4:36 AM 39.2 °F 33.6 °F 28.4 °F 65% 29.65 in 7.0 mi SSW 8.1 mph - N/A   Overcast
4:56 AM 41.0 °F 37.1 °F 30.2 °F 65% 29.63 in 8.0 mi West 5.8 mph - N/A   Mostly Cloudy
5:16 AM 39.2 °F 37.0 °F 30.2 °F 70% 29.62 in 9.0 mi SW 3.5 mph - N/A   Mostly Cloudy
5:36 AM 41.0 °F 39.0 °F 30.2 °F 65% 29.61 in 10.0 mi WSW 3.5 mph - N/A   Mostly Cloudy
5:56 AM 39.2 °F 37.0 °F 30.2 °F 70% 29.61 in 10.0 mi NNW 3.5 mph - N/A   Mostly Cloudy
6:16 AM 41.0 °F 35.8 °F 30.2 °F 65% 29.61 in 10.0 mi WSW 8.1 mph - N/A   Mostly Cloudy
6:36 AM 42.8 °F 39.3 °F 32.0 °F 66% 29.60 in 10.0 mi West 5.8 mph - N/A   Mostly Cloudy
6:56 AM 41.0 °F 36.4 °F 32.0 °F 70% 29.60 in 10.0 mi NW 6.9 mph - N/A   Mostly Cloudy
7:16 AM 39.2 °F 35.0 °F 32.0 °F 75% 29.60 in 10.0 mi West 5.8 mph - N/A   Mostly Cloudy
7:36 AM 39.2 °F 34.2 °F 32.0 °F 75% 29.60 in 10.0 mi West 6.9 mph - N/A   Mostly Cloudy
7:56 AM 39.2 °F - 35.6 °F 87% 29.61 in 10.0 mi Calm Calm - N/A   Mostly Cloudy
8:16 AM 42.8 °F 36.6 °F 37.4 °F 81% 29.59 in 10.0 mi East 11.5 mph 16.1 mph N/A   Overcast
8:36 AM 42.8 °F 36.6 °F 37.4 °F 81% 29.60 in 10.0 mi East 11.5 mph 17.3 mph N/A   Overcast
8:56 AM 42.8 °F 37.5 °F 37.4 °F 81% 29.61 in 10.0 mi ESE 9.2 mph 17.3 mph N/A   Overcast
9:16 AM 42.8 °F 36.6 °F 37.4 °F 81% 29.61 in 10.0 mi ESE 11.5 mph 19.6 mph N/A   Overcast
9:36 AM 46.4 °F 40.4 °F 39.2 °F 76% 29.61 in 10.0 mi SE 13.8 mph 20.7 mph N/A   Overcast
9:56 AM 46.4 °F 39.8 °F 39.2 °F 76% 29.61 in 10.0 mi SSE 16.1 mph 20.7 mph N/A   Overcast
10:16 AM 46.4 °F 40.4 °F 37.4 °F 71% 29.62 in 10.0 mi SE 13.8 mph 21.9 mph N/A   Overcast
10:36 AM 46.4 °F 39.5 °F 39.2 °F 76% 29.62 in 10.0 mi SE 17.3 mph 25.3 mph N/A   Overcast
10:56 AM 46.4 °F 39.8 °F 37.4 °F 71% 29.62 in 10.0 mi SE 16.1 mph 23.0 mph N/A   Overcast
11:16 AM 46.4 °F 41.1 °F 39.2 °F 76% 29.63 in 10.0 mi East 11.5 mph 18.4 mph N/A   Overcast
11:36 AM 44.6 °F 39.2 °F 39.2 °F 81% 29.63 in 10.0 mi East 10.4 mph - N/A   Overcast
11:56 AM 42.8 °F 37.5 °F 39.2 °F 87% 29.63 in 10.0 mi East 9.2 mph - N/A   Overcast
12:16 PM 44.6 °F 41.4 °F 39.2 °F 81% 29.64 in 10.0 mi East 5.8 mph - N/A   Overcast
12:36 PM 44.6 °F 40.2 °F 39.2 °F 81% 29.64 in 10.0 mi East 8.1 mph - N/A   Overcast
12:56 PM 44.6 °F 42.2 °F 39.2 °F 81% 29.64 in 10.0 mi NNW 4.6 mph - N/A   Overcast
1:16 PM 39.2 °F 35.0 °F 35.6 °F 87% 29.63 in 10.0 mi North 5.8 mph - N/A   Overcast
1:36 PM 39.2 °F 35.0 °F 33.8 °F 81% 29.63 in 10.0 mi NNW 5.8 mph - N/A   Overcast
1:56 PM 39.2 °F 34.2 °F 33.8 °F 81% 29.63 in 10.0 mi North 6.9 mph - N/A   Overcast
2:16 PM 39.2 °F 35.0 °F 35.6 °F 87% 29.63 in 10.0 mi North 5.8 mph - N/A   Overcast
2:36 PM 39.2 °F 35.0 °F 35.6 °F 87% 29.63 in 10.0 mi North 5.8 mph - N/A   Overcast
2:56 PM 39.2 °F 35.0 °F 35.6 °F 87% 29.62 in 10.0 mi NNW 5.8 mph - N/A   Mostly Cloudy
3:16 PM 39.2 °F - 35.6 °F 87% 29.63 in 10.0 mi Calm Calm - N/A   Mostly Cloudy
3:36 PM 39.2 °F - 35.6 °F 87% 29.62 in 10.0 mi Calm Calm - N/A   Mostly Cloudy
3:56 PM 39.2 °F 35.0 °F 35.6 °F 87% 29.63 in 10.0 mi West 5.8 mph - N/A   Overcast
4:16 PM 39.2 °F 35.0 °F 35.6 °F 87% 29.62 in 10.0 mi North 5.8 mph - N/A   Overcast
4:36 PM 37.4 °F 33.8 °F 33.8 °F 87% 29.62 in 10.0 mi WNW 4.6 mph - N/A   Overcast
4:56 PM 39.2 °F 35.0 °F 35.6 °F 87% 29.62 in 10.0 mi North 5.8 mph - N/A   Mostly Cloudy
5:16 PM 39.2 °F - 35.6 °F 87% 29.62 in 10.0 mi Calm Calm - N/A   Mostly Cloudy
5:36 PM 39.2 °F - 35.6 °F 87% 29.62 in 10.0 mi Calm Calm - N/A   Mostly Cloudy
5:56 PM 39.2 °F 37.0 °F 35.6 °F 87% 29.62 in 10.0 mi WNW 3.5 mph - N/A   Overcast
6:16 PM 39.2 °F 37.0 °F 35.6 °F 87% 29.62 in 10.0 mi North 3.5 mph - N/A   Overcast
6:36 PM 37.4 °F - 35.6 °F 93% 29.61 in 10.0 mi Calm Calm - N/A   Overcast
6:56 PM 37.4 °F 34.9 °F 33.8 °F 87% 29.61 in 8.0 mi WNW 3.5 mph - N/A   Overcast
7:16 PM 37.4 °F 33.8 °F 33.8 °F 87% 29.61 in 8.0 mi WNW 4.6 mph - N/A   Overcast
7:36 PM 37.4 °F - 33.8 °F 87% 29.61 in 8.0 mi Calm Calm - N/A   Overcast
7:56 PM 37.4 °F - 35.6 °F 93% 29.61 in 8.0 mi Calm Calm - N/A   Overcast
8:16 PM 35.6 °F 31.7 °F 30.2 °F 81% 29.61 in 8.0 mi West 4.6 mph - N/A   Overcast
8:36 PM 35.6 °F - 32.0 °F 87% 29.61 in 8.0 mi Calm Calm - N/A   Overcast
8:56 PM 37.4 °F 32.8 °F 33.8 °F 87% 29.61 in 8.0 mi WNW 5.8 mph - N/A   Overcast
9:16 PM 37.4 °F 33.8 °F 33.8 °F 87% 29.61 in 8.0 mi WNW 4.6 mph - N/A   Overcast
9:36 PM 37.4 °F - 33.8 °F 87% 29.61 in 8.0 mi Calm Calm - N/A   Overcast
9:56 PM 35.6 °F 31.7 °F 32.0 °F 87% 29.62 in 9.0 mi NW 4.6 mph - N/A   Overcast
10:16 PM 35.6 °F - 32.0 °F 87% 29.62 in 9.0 mi Calm Calm - N/A   Overcast
10:36 PM 35.6 °F 30.7 °F 30.2 °F 81% 29.63 in 9.0 mi NW 5.8 mph - N/A   Overcast
10:56 PM 35.6 °F 30.7 °F 30.2 °F 81% 29.64 in 9.0 mi WNW 5.8 mph - N/A   Overcast
11:16 PM 35.6 °F 32.8 °F 30.2 °F 81% 29.64 in 10.0 mi NNW 3.5 mph - N/A   Overcast
11:36 PM 35.6 °F 31.7 °F 30.2 °F 81% 29.64 in 10.0 mi North 4.6 mph - N/A   Overcast
11:56 PM 35.6 °F - 30.2 °F 81% 29.65 in 10.0 mi Calm Calm - N/A   Overcast